Weather History for Lexington, NE

Change the Weather History Date:

Tuesday, May 14, 2013

  Actual Average Record
Temperature  
Mean Temperature 75 °F -  
Max Temperature 99 °F 68 °F 99 °F (2013)
Min Temperature 52 °F 45 °F 30 °F (2004)
Cooling Degree Days 10    
Growing Degree Days 25 (Base 50)    
Moisture  
Dew Point 46 °F    
Average Humidity 37    
Maximum Humidity 80    
Minimum Humidity 13    
Precipitation  
Precipitation 0.00 in - - ()
Sea Level Pressure  
Sea Level Pressure 29.80 in    
Wind  
Wind Speed 8 mph (NW)    
Max Wind Speed 23 mph    
Max Gust Speed 28 mph    
Visibility 10 miles    
Events      
Averages and records for this station are not official NWS values.
T = Trace of Precipitation, MM = Missing Value Source: NWS Daily Summary

Daily Weather History Graph

Daily Weather History Graph

Search for Another Location

Airport:

Trip Planner

Search our weather history database for the weather conditions in past years. The results will help you decide how hot, cold, wet, or windy it might be!

Date:

Astronomy

May. 14, 2013 Rise Set
Actual Time 6:22 AM CDT 8:48 PM CDT
Civil Twilight 5:51 AM CDT 9:20 PM CDT
Nautical Twilight 5:13 AM CDT 9:58 PM CDT
Astronomical Twilight 4:30 AM CDT 10:41 PM CDT
Moon 10:03 AM CDT (5/14) No Moon Set
Length of Visible Light 15h 28m
Length of Day
14h 26m
Waxing Crescent, 19% of the Moon is Illuminated
May 14
Waxing Crescent
May 17
First Quarter
May 24
Full
May 31
Last Quarter
Jun 8
New

Hourly Weather History & Observations

Time (CDT) Temp. Dew Point Humidity Pressure Visibility Wind Dir Wind Speed Gust Speed Precip Events Conditions
12:15 AM 65.7 °F 43.9 °F 45% 29.89 in 10.0 mi South 5.8 mph - N/A   Clear
12:35 AM 65.7 °F 44.6 °F 47% 29.89 in 10.0 mi South 8.1 mph - N/A   Clear
12:55 AM 68.9 °F 43.9 °F 40% 29.88 in 10.0 mi SSW 11.5 mph - N/A   Clear
1:15 AM 68.9 °F 43.9 °F 40% 29.88 in 10.0 mi SSW 10.4 mph - N/A   Clear
1:35 AM 69.4 °F 45.0 °F 41% 29.87 in 10.0 mi SSW 11.5 mph - N/A   Clear
1:55 AM 71.8 °F 45.7 °F 39% 29.86 in 10.0 mi SSW 15.0 mph - N/A   Clear
2:15 AM 70.7 °F 45.9 °F 41% 29.86 in 10.0 mi SSW 13.8 mph - N/A   Clear
2:35 AM 69.8 °F 46.4 °F 43% 29.85 in 10.0 mi SSW 11.5 mph - N/A   Clear
2:55 AM 68.9 °F 46.6 °F 45% 29.85 in 10.0 mi SSW 10.4 mph - N/A   Clear
3:15 AM 67.8 °F 46.9 °F 47% 29.84 in 10.0 mi SW 5.8 mph - N/A   Clear
3:35 AM 59.5 °F 47.8 °F 65% 29.84 in 10.0 mi ENE 3.5 mph - N/A   Clear
3:55 AM 66.0 °F 46.4 °F 49% 29.84 in 10.0 mi Calm Calm - N/A   Clear
4:15 AM 67.8 °F 45.7 °F 45% 29.83 in 10.0 mi SSW 3.5 mph - N/A   Clear
4:35 AM 64.4 °F 46.6 °F 52% 29.83 in 10.0 mi SSW 5.8 mph - N/A   Clear
4:55 AM 55.4 °F 46.0 °F 71% 29.83 in 10.0 mi Calm Calm - N/A   Clear
5:15 AM 54.7 °F 46.4 °F 74% 29.83 in 10.0 mi Calm Calm - N/A   Clear
5:35 AM 53.2 °F 46.0 °F 77% 29.83 in 10.0 mi Calm Calm - N/A   Clear
5:55 AM 52.2 °F 45.7 °F 79% 29.83 in 10.0 mi ENE 3.5 mph - N/A   Clear
6:15 AM 53.1 °F 46.2 °F 78% 29.83 in 10.0 mi Calm Calm - N/A   Clear
6:35 AM 53.1 °F 46.4 °F 78% 29.83 in 10.0 mi Calm Calm - N/A   Clear
6:55 AM 53.1 °F 46.6 °F 79% 29.83 in 7.0 mi Calm Calm - N/A   Clear
7:15 AM 55.0 °F 49.1 °F 80% 29.83 in 10.0 mi Calm Calm - N/A   Clear
7:35 AM 59.0 °F 51.3 °F 75% 29.83 in 10.0 mi Calm Calm - N/A   Clear
7:55 AM 63.1 °F 52.0 °F 67% 29.83 in 10.0 mi WNW 3.5 mph - N/A   Clear
8:15 AM 67.1 °F 50.2 °F 55% 29.83 in 7.0 mi West 4.6 mph - N/A   Clear
8:35 AM 69.8 °F 49.5 °F 48% 29.83 in 10.0 mi WNW 4.6 mph - N/A   Clear
8:55 AM 71.8 °F 50.0 °F 46% 29.83 in 10.0 mi West 3.5 mph - N/A   Clear
9:15 AM 73.8 °F 48.6 °F 41% 29.83 in 10.0 mi WNW 5.8 mph - N/A   Clear
9:35 AM 75.6 °F 50.4 °F 41% 29.83 in 10.0 mi NW 3.5 mph - N/A   Clear
9:55 AM 78.1 °F 49.1 °F 36% 29.82 in 10.0 mi West 4.6 mph - N/A   Clear
10:15 AM 81.7 °F 49.8 °F 33% 29.82 in 10.0 mi SW 4.6 mph - N/A   Clear
10:35 AM 86.7 °F 47.5 °F 26% 29.81 in 10.0 mi WSW 4.6 mph - N/A   Clear
10:55 AM 91.2 °F 43.2 °F 19% 29.80 in 10.0 mi WSW 11.5 mph - N/A   Clear
11:15 AM 93.0 °F 42.3 °F 17% 29.79 in 10.0 mi SW 13.8 mph 20.7 mph N/A   Clear
11:35 AM 94.6 °F 40.3 °F 15% 29.79 in 10.0 mi WSW 13.8 mph 19.6 mph N/A   Clear
11:55 AM 95.9 °F 40.8 °F 15% 29.79 in 10.0 mi WSW 15.0 mph 20.7 mph N/A   Clear
12:15 PM 96.3 °F 40.5 °F 14% 29.78 in 10.0 mi WSW 13.8 mph 23.0 mph N/A   Clear
12:35 PM 96.8 °F 41.0 °F 15% 29.78 in 10.0 mi WSW 16.1 mph 21.9 mph N/A   Clear
12:55 PM 97.2 °F 40.3 °F 14% 29.77 in 10.0 mi WSW 15.0 mph 20.7 mph N/A   Clear
1:15 PM 97.5 °F 38.8 °F 13% 29.77 in 10.0 mi West 19.6 mph 25.3 mph N/A   Clear
1:35 PM 97.9 °F 39.6 °F 13% 29.76 in 10.0 mi West 12.7 mph 20.7 mph N/A   Clear
1:55 PM 97.7 °F 40.5 °F 14% 29.76 in 10.0 mi West 17.3 mph 23.0 mph N/A   Clear
2:15 PM 97.3 °F 41.7 °F 15% 29.75 in 10.0 mi NW 10.4 mph 21.9 mph N/A   Clear
2:35 PM 97.7 °F 44.6 °F 16% 29.75 in 10.0 mi WNW 11.5 mph 16.1 mph N/A   Clear
2:55 PM 97.9 °F 42.8 °F 15% 29.74 in 10.0 mi NW 17.3 mph 20.7 mph N/A   Clear
3:15 PM 98.1 °F 38.5 °F 13% 29.74 in 10.0 mi West 12.7 mph 18.4 mph N/A   Clear
3:35 PM 97.7 °F 38.8 °F 13% 29.73 in 10.0 mi WNW 10.4 mph - N/A   Clear
3:55 PM 98.6 °F 40.6 °F 14% 29.72 in 10.0 mi North 3.5 mph - N/A   Clear
4:15 PM 95.2 °F 41.0 °F 15% 29.71 in 10.0 mi NNE 10.4 mph 20.7 mph N/A   Clear
4:35 PM 98.6 °F 40.1 °F 13% 29.71 in 10.0 mi North 16.1 mph 20.7 mph N/A   Clear
4:55 PM 97.7 °F 41.5 °F 14% 29.71 in 10.0 mi NNE 17.3 mph 23.0 mph N/A   Clear
5:15 PM 96.8 °F 40.5 °F 14% 29.71 in 10.0 mi North 23.0 mph 27.6 mph N/A   Clear
5:35 PM 96.3 °F 41.9 °F 15% 29.71 in 5.0 mi NNE 17.3 mph - N/A   Haze
5:55 PM 95.9 °F 40.5 °F 15% 29.72 in 10.0 mi NNE 13.8 mph - N/A   Clear
6:15 PM 94.3 °F 45.1 °F 18% 29.72 in 5.0 mi NNE 13.8 mph 19.6 mph N/A   Haze
6:35 PM 92.7 °F 45.3 °F 20% 29.72 in 10.0 mi NNE 18.4 mph - N/A   Clear
6:55 PM 91.8 °F 46.2 °F 21% 29.73 in 10.0 mi NNE 15.0 mph 19.6 mph N/A   Clear
7:15 PM 90.0 °F 47.3 °F 23% 29.73 in 10.0 mi NNE 15.0 mph - N/A   Clear
7:35 PM 88.3 °F 48.2 °F 25% 29.74 in 10.0 mi NE 11.5 mph - N/A   Clear
7:55 PM 86.9 °F 49.8 °F 28% 29.75 in 10.0 mi ENE 10.4 mph - N/A   Clear
8:15 PM 86.0 °F 50.7 °F 30% 29.76 in 10.0 mi ENE 8.1 mph - N/A   Clear
8:35 PM 82.0 °F 50.0 °F 33% 29.76 in 10.0 mi ENE 8.1 mph - N/A   Clear
8:55 PM 81.7 °F 48.6 °F 31% 29.77 in 10.0 mi ESE 4.6 mph - N/A   Clear
9:15 PM 78.8 °F 49.8 °F 36% 29.78 in 10.0 mi ENE 5.8 mph - N/A   Clear
9:35 PM 75.4 °F 48.9 °F 39% 29.78 in 10.0 mi East 3.5 mph - N/A   Clear
9:55 PM 72.3 °F 50.0 °F 45% 29.79 in 10.0 mi NNE 9.2 mph - N/A   Clear
10:15 PM 74.3 °F 49.5 °F 41% 29.81 in 10.0 mi North 10.4 mph - N/A   Clear
10:35 PM 73.2 °F 51.3 °F 46% 29.82 in 10.0 mi NNE 10.4 mph - N/A   Clear
10:55 PM 72.7 °F 50.5 °F 46% 29.82 in 10.0 mi NE 11.5 mph - N/A   Clear
11:15 PM 72.3 °F 50.2 °F 46% 29.83 in 10.0 mi NE 13.8 mph - N/A   Clear
11:35 PM 72.0 °F 48.2 °F 43% 29.83 in 10.0 mi ENE 15.0 mph - N/A   Clear
11:55 PM 73.0 °F 47.1 °F 40% 29.83 in 10.0 mi ENE 15.0 mph - N/A   Clear